Change the Weather History Date:

Thursday, April 3, 2014

  Actual Average (KAPC) Record (KAPC)
Temperature  
Mean Temperature 50 °F 54 °F  
Max Temperature 60 °F 67 °F 76 °F (2013)
Min Temperature 39 °F 41 °F 28 °F (2001)
Degree Days  
Heating Degree Days 16    
Month to date heating degree days  
Since 1 July heating degree days  
Cooling Degree Days 0    
Month to date cooling degree days  
Year to date cooling degree days  
Moisture  
Dew Point 44 °F    
Average Humidity 85    
Maximum Humidity 100    
Minimum Humidity 42    
Precipitation  
Precipitation 0.00 in - 2.52 in (1958)
Month to date precipitation  
Year to date precipitation  
Since 1 July precipitation  
Sea Level Pressure  
Sea Level Pressure 30.10 in    
Wind  
Wind Speed 1 mph (NW)    
Max Wind Speed 12 mph    
Max Gust Speed -    
Visibility 9 miles    
Events      
T = Trace of Precipitation, MM = Missing Value Source: NWS Daily Summary

Daily Weather History Graph

Daily Weather History Graph

Search for Another Location

Airport or City:

Trip Planner

Search our weather history database for the weather conditions in past years. The results will help you decide how hot, cold, wet, or windy it might be!

Date:

Astronomy

Apr. 03, 2014 Rise Set
Actual Time 6:52 AM PDT 7:35 PM PDT
Civil Twilight 6:25 AM PDT 8:02 PM PDT
Nautical Twilight 5:54 AM PDT 8:33 PM PDT
Astronomical Twilight 5:21 AM PDT 9:06 PM PDT
Moon 9:28 AM PDT (4/3) 11:57 PM PDT (4/3)
Length of Visible Light 13h 36m
Length of Day
12h 43m
Waxing Crescent, 18% of the Moon is Illuminated
Apr 3
Waxing Crescent
Apr 7
First Quarter
Apr 15
Full
Apr 22
Last Quarter
Apr 28
New

Hourly Weather History & Observations

Time (PDT) Temp. Windchill Dew Point Humidity Pressure Visibility Wind Dir Wind Speed Gust Speed Precip Events Conditions
12:15 AM 42.8 °F - 42.8 °F 100% 30.12 in 10.0 mi Calm Calm - N/A   Overcast
12:35 AM 42.8 °F - 42.8 °F 100% 30.12 in 10.0 mi Calm Calm - N/A   Overcast
12:55 AM 41.0 °F - 41.0 °F 100% 30.12 in 10.0 mi Calm Calm - N/A   Overcast
1:15 AM 41.0 °F - 41.0 °F 100% 30.12 in 10.0 mi Calm Calm - N/A   Overcast
1:35 AM 44.6 °F - 44.6 °F 100% 30.12 in 10.0 mi Calm Calm - N/A   Overcast
1:55 AM 44.6 °F - 44.6 °F 100% 30.12 in 10.0 mi Calm Calm - N/A   Overcast
2:15 AM 44.6 °F - 44.6 °F 100% 30.12 in 10.0 mi Calm Calm - N/A   Overcast
2:35 AM 44.6 °F - 44.6 °F 100% 30.12 in 10.0 mi Calm Calm - N/A   Overcast
2:55 AM 44.6 °F - 44.6 °F 100% 30.12 in 10.0 mi Calm Calm - N/A   Overcast
3:15 AM 44.6 °F - 44.6 °F 100% 30.11 in 10.0 mi Calm Calm - N/A   Overcast
3:35 AM 42.8 °F - 42.8 °F 100% 30.11 in 9.0 mi Calm Calm - N/A   Overcast
3:55 AM 42.8 °F - 42.8 °F 100% 30.11 in 8.0 mi Calm Calm - N/A   Overcast
4:15 AM 41.0 °F - 41.0 °F 100% 30.11 in 4.0 mi Calm Calm - N/A   Overcast
4:35 AM 41.0 °F - 41.0 °F 100% 30.11 in 7.0 mi Calm Calm - N/A   Overcast
4:55 AM 41.0 °F - 41.0 °F 100% 30.11 in 9.0 mi Calm Calm - N/A   Overcast
5:15 AM 39.2 °F - 39.2 °F 100% 30.11 in 5.0 mi Calm Calm - N/A   Overcast
5:35 AM 41.0 °F - 41.0 °F 100% 30.11 in 5.0 mi Calm Calm - N/A   Overcast
5:55 AM 41.0 °F - 41.0 °F 100% 30.11 in 7.0 mi Calm Calm - N/A   Overcast
6:15 AM 41.0 °F - 41.0 °F 100% 30.11 in 10.0 mi Calm Calm - N/A   Overcast
6:35 AM 41.0 °F - 41.0 °F 100% 30.11 in 9.0 mi Calm Calm - N/A   Mostly Cloudy
6:55 AM 41.0 °F - 41.0 °F 100% 30.12 in 10.0 mi Calm Calm - N/A   Mostly Cloudy
7:15 AM 41.0 °F - 41.0 °F 100% 30.12 in 5.0 mi Calm Calm - N/A   Partly Cloudy
7:35 AM 41.0 °F - 41.0 °F 100% 30.12 in 10.0 mi Calm Calm - N/A   Mostly Cloudy
7:55 AM 41.0 °F - 41.0 °F 100% 30.13 in 7.0 mi Calm Calm - N/A   Overcast
8:15 AM 44.6 °F - 44.6 °F 100% 30.13 in 7.0 mi Calm Calm - N/A   Overcast
8:35 AM 44.6 °F - 44.6 °F 100% 30.13 in 7.0 mi Calm Calm - N/A   Overcast
8:55 AM 46.4 °F - 46.4 °F 100% 30.14 in 10.0 mi Calm Calm - N/A   Overcast
9:15 AM 48.2 °F - 48.2 °F 100% 30.14 in 10.0 mi Calm Calm - N/A   Overcast
9:35 AM 48.2 °F - 48.2 °F 100% 30.14 in 10.0 mi Calm Calm - N/A   Overcast
9:55 AM 50.0 °F - 48.2 °F 94% 30.14 in 10.0 mi WNW 3.5 mph - N/A   Overcast
10:15 AM 50.0 °F - 48.2 °F 94% 30.15 in 10.0 mi West 3.5 mph - N/A   Overcast
10:35 AM 51.8 °F - 48.2 °F 88% 30.15 in 10.0 mi North 3.5 mph - N/A   Mostly Cloudy
10:55 AM 53.6 °F - 48.2 °F 82% 30.15 in 10.0 mi North 3.5 mph - N/A   Mostly Cloudy
11:15 AM 53.6 °F - 46.4 °F 77% 30.15 in 10.0 mi Calm Calm - N/A   Mostly Cloudy
11:35 AM 55.4 °F - 46.4 °F 72% 30.14 in 10.0 mi Calm Calm - N/A   Scattered Clouds
11:55 AM 55.4 °F - 46.4 °F 72% 30.14 in 10.0 mi West 4.6 mph - N/A   Scattered Clouds
12:15 PM 57.2 °F - 46.4 °F 67% 30.13 in 10.0 mi NNE 3.5 mph - N/A   Clear
12:35 PM 57.2 °F - 44.6 °F 63% 30.13 in 10.0 mi West 3.5 mph - N/A   Clear
12:55 PM 57.2 °F - 44.6 °F 63% 30.12 in 10.0 mi NE 3.5 mph - N/A   Clear
1:15 PM 57.2 °F - 46.4 °F 67% 30.12 in 10.0 mi NNE 3.5 mph - N/A   Scattered Clouds
1:35 PM 57.2 °F - 44.6 °F 63% 30.11 in 10.0 mi NNE 3.5 mph - N/A   Mostly Cloudy
1:55 PM 59.0 °F - 44.6 °F 59% 30.11 in 10.0 mi NNE 3.5 mph - N/A   Mostly Cloudy
2:15 PM 59.0 °F - 46.4 °F 63% 30.11 in 10.0 mi NW 5.8 mph - N/A   Mostly Cloudy
2:35 PM 57.2 °F - 48.2 °F 72% 30.11 in 10.0 mi NNW 4.6 mph - N/A   Overcast
2:55 PM 59.0 °F - 46.4 °F 63% 30.10 in 10.0 mi North 3.5 mph - N/A   Mostly Cloudy
3:15 PM 60.8 °F - 46.4 °F 59% 30.09 in 10.0 mi WSW 4.6 mph - N/A   Mostly Cloudy
3:35 PM 60.8 °F - 46.4 °F 59% 30.08 in 10.0 mi ENE 3.5 mph - N/A   Mostly Cloudy
3:55 PM 60.8 °F - 46.4 °F 59% 30.08 in 10.0 mi West 5.8 mph - N/A   Mostly Cloudy
4:15 PM 59.0 °F - 48.2 °F 67% 30.07 in 10.0 mi NW 6.9 mph - N/A   Scattered Clouds
4:35 PM 59.0 °F - 44.6 °F 59% 30.06 in 10.0 mi WSW 6.9 mph - N/A   Scattered Clouds
4:55 PM 60.8 °F - 37.4 °F 42% 30.06 in 10.0 mi WSW 8.1 mph - N/A   Partly Cloudy
5:15 PM 60.8 °F - 39.2 °F 45% 30.05 in 10.0 mi SW 9.2 mph - N/A   Clear
5:35 PM 60.8 °F - 39.2 °F 45% 30.05 in 10.0 mi WSW 9.2 mph - N/A   Clear
5:55 PM 59.0 °F - 41.0 °F 51% 30.05 in 10.0 mi West 10.4 mph - N/A   Clear
6:15 PM 57.2 °F - 41.0 °F 55% 30.06 in 10.0 mi West 11.5 mph - N/A   Clear
6:55 PM 55.4 °F - 41.0 °F 58% 30.06 in 10.0 mi West 6.9 mph - N/A   Clear
7:15 PM 53.6 °F - 44.6 °F 72% 30.06 in 10.0 mi West 9.2 mph - N/A   Clear
7:35 PM 51.8 °F - 46.4 °F 82% 30.06 in 10.0 mi NNW 4.6 mph - N/A   Clear
9:15 PM 50.0 °F - 46.4 °F 87% 30.07 in 10.0 mi Calm Calm - N/A   Scattered Clouds
9:35 PM 48.2 °F - 46.4 °F 93% 30.07 in 10.0 mi Calm Calm - N/A   Mostly Cloudy
9:55 PM 46.4 °F 45.2 °F 46.4 °F 100% 30.07 in 10.0 mi SE 3.5 mph - N/A   Overcast
10:15 PM 48.2 °F - 48.2 °F 100% 30.07 in 10.0 mi Calm Calm - N/A   Overcast
10:35 PM 48.2 °F - 48.2 °F 100% 30.07 in 10.0 mi NE 3.5 mph - N/A   Overcast
10:55 PM 48.2 °F - 48.2 °F 100% 30.07 in 10.0 mi ENE 3.5 mph - N/A   Overcast
11:15 PM 48.2 °F - 48.2 °F 100% 30.07 in 10.0 mi NE 3.5 mph - N/A   Mostly Cloudy
11:35 PM 48.2 °F - 48.2 °F 100% 30.06 in 10.0 mi ENE 3.5 mph - N/A   Overcast
11:55 PM 48.2 °F - 48.2 °F 100% 30.06 in 10.0 mi Calm Calm - N/A   Overcast